Time,TemperatureF,DewpointF,PressureIn,WindDirection,WindDirectionDegrees,WindSpeedMPH,WindSpeedGustMPH,Humidity,HourlyPrecipIn,Conditions,Clouds,dailyrainin,SoftwareType,DateUTC
2013-07-30 00:00:00,53.9,52.2,30.07,North,355,0.0,0.0,94,0.00,,,0.00,Wunderground v.1.15,2013-07-30 07:00:00,
2013-07-30 00:10:00,54.1,52.4,30.06,North,355,0.0,0.0,94,0.00,,,0.00,Wunderground v.1.15,2013-07-30 07:10:00,
2013-07-30 00:20:00,54.2,52.5,30.07,North,355,0.0,0.0,94,0.00,,,0.00,Wunderground v.1.15,2013-07-30 07:20:00,
2013-07-30 00:30:00,54.4,52.4,30.07,North,355,0.0,0.0,93,0.00,,,0.00,Wunderground v.1.15,2013-07-30 07:30:00,
2013-07-30 00:40:00,54.4,52.4,30.07,North,355,0.0,0.0,93,0.00,,,0.00,Wunderground v.1.15,2013-07-30 07:40:00,
2013-07-30 00:50:00,54.5,52.5,30.07,North,355,0.0,0.0,93,0.00,,,0.00,Wunderground v.1.15,2013-07-30 07:50:00,
2013-07-30 00:55:00,54.5,52.5,30.07,North,355,0.0,0.0,93,0.00,,,0.00,Wunderground v.1.15,2013-07-30 07:55:00,
2013-07-30 01:00:00,54.5,52.5,30.07,North,355,0.0,0.0,93,0.00,,,0.00,Wunderground v.1.15,2013-07-30 08:00:00,
2013-07-30 01:10:00,54.5,52.5,30.07,North,355,0.0,0.0,93,0.00,,,0.00,Wunderground v.1.15,2013-07-30 08:10:00,
2013-07-30 01:20:00,54.4,52.4,30.07,North,355,0.0,0.0,93,0.00,,,0.00,Wunderground v.1.15,2013-07-30 08:20:00,
2013-07-30 01:30:00,54.5,52.5,30.07,North,355,0.0,0.0,93,0.00,,,0.00,Wunderground v.1.15,2013-07-30 08:30:00,
2013-07-30 01:40:00,54.4,52.4,30.07,North,355,0.0,0.0,93,0.00,,,0.00,Wunderground v.1.15,2013-07-30 08:40:00,
2013-07-30 01:50:00,54.3,52.3,30.07,North,355,0.0,0.0,93,0.00,,,0.00,Wunderground v.1.15,2013-07-30 08:50:00,
2013-07-30 01:55:00,54.4,52.4,30.07,North,355,0.0,0.0,93,0.00,,,0.00,Wunderground v.1.15,2013-07-30 08:55:00,
2013-07-30 02:00:00,54.4,52.4,30.07,North,355,0.0,0.0,93,0.00,,,0.00,Wunderground v.1.15,2013-07-30 09:00:00,
2013-07-30 02:10:00,54.4,52.4,30.07,North,355,0.0,0.0,93,0.00,,,0.00,Wunderground v.1.15,2013-07-30 09:10:00,
2013-07-30 02:20:00,54.5,52.5,30.07,North,355,0.0,0.0,93,0.00,,,0.00,Wunderground v.1.15,2013-07-30 09:20:00,
2013-07-30 02:30:00,54.5,52.5,30.07,North,355,0.0,0.0,93,0.00,,,0.00,Wunderground v.1.15,2013-07-30 09:30:00,
2013-07-30 02:40:00,54.6,52.6,30.07,NW,323,0.0,0.0,93,0.00,,,0.00,Wunderground v.1.15,2013-07-30 09:40:00,
2013-07-30 02:50:00,54.6,52.3,30.07,West,277,0.0,0.0,92,0.00,,,0.00,Wunderground v.1.15,2013-07-30 09:50:00,
2013-07-30 02:55:00,54.6,52.3,30.07,North,360,0.0,0.0,92,0.00,,,0.00,Wunderground v.1.15,2013-07-30 09:55:00,
2013-07-30 03:00:00,54.6,52.3,30.07,North,351,0.0,0.0,92,0.00,,,0.00,Wunderground v.1.15,2013-07-30 10:00:00,
2013-07-30 03:10:00,54.7,52.1,30.07,West,277,1.0,1.0,91,0.00,,,0.00,Wunderground v.1.15,2013-07-30 10:10:00,
2013-07-30 03:20:00,54.7,51.8,30.08,West,277,0.0,0.0,90,0.00,,,0.00,Wunderground v.1.15,2013-07-30 10:20:00,
2013-07-30 03:30:00,54.9,52.0,30.08,West,277,0.0,0.0,90,0.00,,,0.00,Wunderground v.1.15,2013-07-30 10:30:00,
2013-07-30 03:40:00,54.9,52.0,30.08,West,277,0.0,0.0,90,0.00,,,0.00,Wunderground v.1.15,2013-07-30 10:40:00,
2013-07-30 03:50:00,54.9,52.0,30.08,West,277,0.0,0.0,90,0.00,,,0.00,Wunderground v.1.15,2013-07-30 10:50:00,
2013-07-30 03:55:00,55.0,52.1,30.08,West,277,0.0,0.0,90,0.00,,,0.00,Wunderground v.1.15,2013-07-30 10:55:00,
2013-07-30 04:01:00,55.0,52.4,30.08,West,277,0.0,0.0,91,0.00,,,0.00,Wunderground v.1.15,2013-07-30 11:01:00,
2013-07-30 04:10:00,55.0,52.1,30.08,NNW,339,0.0,0.0,90,0.00,,,0.00,Wunderground v.1.15,2013-07-30 11:10:00,
2013-07-30 04:20:00,55.0,51.8,30.08,NNW,339,0.0,0.0,89,0.00,,,0.00,Wunderground v.1.15,2013-07-30 11:20:00,
2013-07-30 04:30:00,55.1,52.2,30.08,NW,323,0.0,0.0,90,0.00,,,0.00,Wunderground v.1.15,2013-07-30 11:30:00,
2013-07-30 04:40:00,55.1,52.2,30.08,NW,323,0.0,0.0,90,0.00,,,0.00,Wunderground v.1.15,2013-07-30 11:40:00,
2013-07-30 04:50:00,55.1,52.2,30.08,NW,323,0.0,0.0,90,0.00,,,0.00,Wunderground v.1.15,2013-07-30 11:50:00,
2013-07-30 04:55:00,55.1,52.2,30.08,NW,323,0.0,0.0,90,0.00,,,0.00,Wunderground v.1.15,2013-07-30 11:55:00,
2013-07-30 05:00:00,55.1,52.5,30.08,NW,323,0.0,0.0,91,0.00,,,0.00,Wunderground v.1.15,2013-07-30 12:00:00,
2013-07-30 05:10:00,55.1,52.2,30.08,NW,323,0.0,0.0,90,0.00,,,0.00,Wunderground v.1.15,2013-07-30 12:10:00,
2013-07-30 05:20:00,55.1,52.2,30.08,NW,323,0.0,0.0,90,0.00,,,0.00,Wunderground v.1.15,2013-07-30 12:20:00,
2013-07-30 05:30:00,55.2,52.3,30.08,NW,323,0.0,0.0,90,0.00,,,0.00,Wunderground v.1.15,2013-07-30 12:30:00,
2013-07-30 05:40:00,55.1,51.9,30.08,NW,323,0.0,0.0,89,0.00,,,0.00,Wunderground v.1.15,2013-07-30 12:40:00,
2013-07-30 05:50:00,55.1,52.2,30.09,NW,323,0.0,0.0,90,0.00,,,0.00,Wunderground v.1.15,2013-07-30 12:50:00,
2013-07-30 06:00:00,55.1,52.2,30.09,NW,323,0.0,0.0,90,0.00,,,0.00,Wunderground v.1.15,2013-07-30 13:00:00,
2013-07-30 06:10:00,55.1,52.2,30.09,NW,323,0.0,0.0,90,0.00,,,0.00,Wunderground v.1.15,2013-07-30 13:10:00,
2013-07-30 06:20:00,55.1,52.5,30.09,NW,323,0.0,0.0,91,0.00,,,0.00,Wunderground v.1.15,2013-07-30 13:20:00,
2013-07-30 06:30:00,55.2,52.6,30.10,NW,323,0.0,0.0,91,0.00,,,0.00,Wunderground v.1.15,2013-07-30 13:30:00,
2013-07-30 06:40:00,55.3,52.7,30.10,NW,323,0.0,0.0,91,0.00,,,0.00,Wunderground v.1.15,2013-07-30 13:40:00,
2013-07-30 06:50:00,55.4,52.8,30.10,NW,323,0.0,0.0,91,0.00,,,0.00,Wunderground v.1.15,2013-07-30 13:50:00,
2013-07-30 07:00:00,55.5,52.6,30.10,NW,323,0.0,0.0,90,0.00,,,0.00,Wunderground v.1.15,2013-07-30 14:00:00,
2013-07-30 07:10:00,55.6,53.0,30.10,NW,323,0.0,0.0,91,0.00,,,0.00,Wunderground v.1.15,2013-07-30 14:10:00,
2013-07-30 07:20:00,55.8,52.9,30.10,NW,323,0.0,0.0,90,0.00,,,0.00,Wunderground v.1.15,2013-07-30 14:20:00,
2013-07-30 07:30:00,56.0,52.8,30.10,NW,323,0.0,0.0,89,0.00,,,0.00,Wunderground v.1.15,2013-07-30 14:30:00,
2013-07-30 07:40:00,56.4,52.9,30.11,NW,323,0.0,0.0,88,0.00,,,0.00,Wunderground v.1.15,2013-07-30 14:40:00,
2013-07-30 07:50:00,56.7,52.6,30.11,NW,323,0.0,0.0,86,0.00,,,0.00,Wunderground v.1.15,2013-07-30 14:50:00,
2013-07-30 08:00:00,57.0,52.9,30.11,NW,323,0.0,0.0,86,0.00,,,0.00,Wunderground v.1.15,2013-07-30 15:00:00,
2013-07-30 08:10:00,57.2,52.7,30.11,NW,323,0.0,0.0,85,0.00,,,0.00,Wunderground v.1.15,2013-07-30 15:10:00,
2013-07-30 08:20:00,57.4,52.6,30.11,NW,325,0.0,0.0,84,0.00,,,0.00,Wunderground v.1.15,2013-07-30 15:20:00,
2013-07-30 08:30:00,57.5,52.7,30.11,SSE,162,0.0,0.0,84,0.00,,,0.00,Wunderground v.1.15,2013-07-30 15:30:00,
2013-07-30 08:40:00,57.8,52.3,30.11,SSE,162,0.0,0.0,82,0.00,,,0.00,Wunderground v.1.15,2013-07-30 15:40:00,
2013-07-30 08:50:00,58.0,52.9,30.11,SSE,162,0.0,0.0,83,0.00,,,0.00,Wunderground v.1.15,2013-07-30 15:50:00,
2013-07-30 09:00:00,58.2,52.7,30.11,SSE,162,0.0,0.0,82,0.00,,,0.00,Wunderground v.1.15,2013-07-30 16:00:00,
2013-07-30 09:10:00,58.2,52.7,30.11,ENE,62,0.0,0.0,82,0.00,,,0.00,Wunderground v.1.15,2013-07-30 16:10:00,
2013-07-30 09:15:00,58.2,52.7,30.11,East,84,0.0,1.0,82,0.00,,,0.00,Wunderground v.1.15,2013-07-30 16:15:00,
2013-07-30 09:25:00,58.4,52.9,30.11,North,350,0.0,2.0,82,0.00,,,0.00,Wunderground v.1.15,2013-07-30 16:25:00,
2013-07-30 09:35:00,58.7,53.2,30.11,WNW,290,0.0,0.0,82,0.00,,,0.00,Wunderground v.1.15,2013-07-30 16:35:00,
2013-07-30 09:45:00,59.0,53.5,30.12,WNW,291,0.0,1.0,82,0.00,,,0.00,Wunderground v.1.15,2013-07-30 16:45:00,
2013-07-30 09:55:00,59.1,53.3,30.11,NE,34,1.0,1.0,81,0.00,,,0.00,Wunderground v.1.15,2013-07-30 16:55:00,
2013-07-30 10:00:00,59.4,53.9,30.11,NE,34,0.0,0.0,82,0.00,,,0.00,Wunderground v.1.15,2013-07-30 17:00:00,
2013-07-30 10:10:00,60.0,53.8,30.11,North,10,0.0,0.0,80,0.00,,,0.00,Wunderground v.1.15,2013-07-30 17:10:00,
2013-07-30 10:20:00,60.1,53.6,30.11,NW,312,1.0,1.0,79,0.00,,,0.00,Wunderground v.1.15,2013-07-30 17:20:00,
2013-07-30 10:30:00,60.0,53.8,30.12,NW,310,1.0,1.0,80,0.00,,,0.00,Wunderground v.1.15,2013-07-30 17:30:00,
2013-07-30 10:40:00,59.8,53.6,30.12,NNW,345,1.0,1.0,80,0.00,,,0.00,Wunderground v.1.15,2013-07-30 17:40:00,
2013-07-30 10:50:00,60.2,54.0,30.12,WNW,301,1.0,1.0,80,0.00,,,0.00,Wunderground v.1.15,2013-07-30 17:50:00,
2013-07-30 11:00:00,60.2,53.7,30.12,WNW,296,2.0,2.0,79,0.00,,,0.00,Wunderground v.1.15,2013-07-30 18:00:00,
2013-07-30 11:10:00,60.5,54.3,30.12,SW,235,2.0,2.0,80,0.00,,,0.00,Wunderground v.1.15,2013-07-30 18:10:00,
2013-07-30 11:20:00,60.9,54.3,30.12,North,349,1.0,1.0,79,0.00,,,0.00,Wunderground v.1.15,2013-07-30 18:20:00,
2013-07-30 11:30:00,60.9,54.3,30.13,NW,317,2.0,2.0,79,0.00,,,0.00,Wunderground v.1.15,2013-07-30 18:30:00,
2013-07-30 11:40:00,60.9,54.7,30.12,North,5,1.0,1.0,80,0.00,,,0.00,Wunderground v.1.15,2013-07-30 18:40:00,
2013-07-30 11:50:00,61.4,54.8,30.12,North,5,2.0,2.0,79,0.00,,,0.00,Wunderground v.1.15,2013-07-30 18:50:00,
2013-07-30 12:01:00,61.8,55.2,30.13,NE,44,2.0,3.0,79,0.00,,,0.00,Wunderground v.1.15,2013-07-30 19:01:00,
2013-07-30 12:10:00,61.8,54.9,30.13,NW,305,2.0,3.0,78,0.00,,,0.00,Wunderground v.1.15,2013-07-30 19:10:00,
2013-07-30 12:20:00,62.2,54.9,30.12,NNW,335,2.0,2.0,77,0.00,,,0.00,Wunderground v.1.15,2013-07-30 19:20:00,
2013-07-30 12:30:00,62.4,55.8,30.13,NNW,331,1.0,1.0,79,0.00,,,0.00,Wunderground v.1.15,2013-07-30 19:30:00,
2013-07-30 12:40:00,62.3,55.7,30.12,WNW,295,2.0,2.0,79,0.00,,,0.00,Wunderground v.1.15,2013-07-30 19:40:00,
2013-07-30 12:50:00,62.8,55.5,30.12,North,5,1.0,3.0,77,0.00,,,0.00,Wunderground v.1.15,2013-07-30 19:50:00,
2013-07-30 13:00:00,63.5,55.4,30.12,NE,51,1.0,1.0,75,0.00,,,0.00,Wunderground v.1.15,2013-07-30 20:00:00,
2013-07-30 13:10:00,64.2,56.1,30.12,NW,324,2.0,3.0,75,0.00,,,0.00,Wunderground v.1.15,2013-07-30 20:10:00,
2013-07-30 13:20:00,64.7,55.5,30.12,NW,324,3.0,4.0,72,0.00,,,0.00,Wunderground v.1.15,2013-07-30 20:20:00,
2013-07-30 13:30:00,64.8,56.3,30.12,SSW,210,3.0,3.0,74,0.00,,,0.00,Wunderground v.1.15,2013-07-30 20:30:00,
2013-07-30 13:40:00,66.3,56.2,30.12,NE,37,2.0,2.0,70,0.00,,,0.00,Wunderground v.1.15,2013-07-30 20:40:00,
2013-07-30 13:45:00,67.0,56.5,30.12,NW,308,1.0,2.0,69,0.00,,,0.00,Wunderground v.1.15,2013-07-30 20:45:00,
2013-07-30 13:55:00,67.0,55.3,30.12,WNW,302,3.0,3.0,66,0.00,,,0.00,Wunderground v.1.15,2013-07-30 20:55:00,
2013-07-30 14:00:00,66.3,55.8,30.11,NNW,348,4.0,4.0,69,0.00,,,0.00,Wunderground v.1.15,2013-07-30 21:00:00,
2013-07-30 14:10:00,67.7,56.3,30.11,North,360,4.0,4.0,67,0.00,,,0.00,Wunderground v.1.15,2013-07-30 21:10:00,
2013-07-30 14:20:00,67.3,56.4,30.11,NW,312,4.0,5.0,68,0.00,,,0.00,Wunderground v.1.15,2013-07-30 21:20:00,
2013-07-30 14:30:00,67.6,56.2,30.11,SE,146,3.0,3.0,67,0.00,,,0.00,Wunderground v.1.15,2013-07-30 21:30:00,
2013-07-30 14:40:00,67.4,56.1,30.11,West,265,3.0,3.0,67,0.00,,,0.00,Wunderground v.1.15,2013-07-30 21:40:00,
2013-07-30 14:50:00,67.2,55.9,30.11,WNW,300,4.0,4.0,67,0.00,,,0.00,Wunderground v.1.15,2013-07-30 21:50:00,
2013-07-30 14:55:00,67.3,55.5,30.11,WNW,292,3.0,4.0,66,0.00,,,0.00,Wunderground v.1.15,2013-07-30 21:55:00,
2013-07-30 15:00:00,67.5,55.7,30.10,NNE,12,3.0,3.0,66,0.00,,,0.00,Wunderground v.1.15,2013-07-30 22:00:00,
2013-07-30 15:10:00,67.2,56.7,30.11,NNE,26,4.0,4.0,69,0.00,,,0.00,Wunderground v.1.15,2013-07-30 22:10:00,
2013-07-30 15:20:00,67.3,56.0,30.11,NW,304,4.0,4.0,67,0.00,,,0.00,Wunderground v.1.15,2013-07-30 22:20:00,
2013-07-30 15:30:00,66.6,55.3,30.11,WNW,282,5.0,8.0,67,0.00,,,0.00,Wunderground v.1.15,2013-07-30 22:30:00,
2013-07-30 15:40:00,67.0,55.7,30.11,NE,44,3.0,4.0,67,0.00,,,0.00,Wunderground v.1.15,2013-07-30 22:40:00,
2013-07-30 15:50:00,67.3,56.0,30.11,WSW,245,3.0,5.0,67,0.00,,,0.00,Wunderground v.1.15,2013-07-30 22:50:00,
2013-07-30 16:00:00,67.2,55.0,30.11,NW,307,4.0,4.0,65,0.00,,,0.00,Wunderground v.1.15,2013-07-30 23:00:00,
2013-07-30 16:10:00,67.1,56.2,30.11,NNW,338,5.0,5.0,68,0.00,,,0.00,Wunderground v.1.15,2013-07-30 23:10:00,
2013-07-30 16:20:00,67.4,55.6,30.11,West,275,3.0,5.0,66,0.00,,,0.00,Wunderground v.1.15,2013-07-30 23:20:00,
2013-07-30 16:30:00,67.6,55.4,30.11,North,355,4.0,4.0,65,0.00,,,0.00,Wunderground v.1.15,2013-07-30 23:30:00,
2013-07-30 16:40:00,67.2,55.9,30.11,NW,320,4.0,4.0,67,0.00,,,0.00,Wunderground v.1.15,2013-07-30 23:40:00,
2013-07-30 16:50:00,67.4,55.2,30.11,NW,313,3.0,4.0,65,0.00,,,0.00,Wunderground v.1.15,2013-07-30 23:50:00,
2013-07-30 17:00:00,65.8,54.9,30.11,NW,315,4.0,6.0,68,0.00,,,0.00,Wunderground v.1.15,2013-07-31 00:00:00,
2013-07-30 17:10:00,65.4,55.0,30.11,WNW,286,4.0,5.0,69,0.00,,,0.00,Wunderground v.1.15,2013-07-31 00:10:00,
2013-07-30 17:20:00,65.3,54.9,30.11,NNE,17,4.0,4.0,69,0.00,,,0.00,Wunderground v.1.15,2013-07-31 00:20:00,
2013-07-30 17:30:00,64.4,54.8,30.11,North,355,4.0,4.0,71,0.00,,,0.00,Wunderground v.1.15,2013-07-31 00:30:00,
2013-07-30 17:40:00,64.2,55.0,30.11,WNW,300,4.0,5.0,72,0.00,,,0.00,Wunderground v.1.15,2013-07-31 00:40:00,
2013-07-30 17:50:00,64.2,54.6,30.11,NNW,338,3.0,4.0,71,0.00,,,0.00,Wunderground v.1.15,2013-07-31 00:50:00,
2013-07-30 18:00:00,63.6,54.4,30.11,WNW,283,3.0,3.0,72,0.00,,,0.00,Wunderground v.1.15,2013-07-31 01:00:00,
2013-07-30 18:10:00,62.8,54.8,30.11,NW,321,3.0,7.0,75,0.00,,,0.00,Wunderground v.1.15,2013-07-31 01:10:00,
2013-07-30 18:20:00,61.9,53.9,30.11,SSW,211,3.0,4.0,75,0.00,,,0.00,Wunderground v.1.15,2013-07-31 01:20:00,
2013-07-30 18:30:00,61.7,54.4,30.11,WNW,300,2.0,4.0,77,0.00,,,0.00,Wunderground v.1.15,2013-07-31 01:30:00,
2013-07-30 18:40:00,61.6,54.7,30.11,NW,324,2.0,2.0,78,0.00,,,0.00,Wunderground v.1.15,2013-07-31 01:40:00,
2013-07-30 18:50:00,61.5,54.6,30.11,WNW,299,3.0,3.0,78,0.00,,,0.00,Wunderground v.1.15,2013-07-31 01:50:00,
2013-07-30 19:01:00,60.9,54.3,30.11,North,5,4.0,4.0,79,0.00,,,0.00,Wunderground v.1.15,2013-07-31 02:01:00,
2013-07-30 19:10:00,60.6,54.4,30.11,NNW,327,2.0,4.0,80,0.00,,,0.00,Wunderground v.1.15,2013-07-31 02:10:00,
2013-07-30 19:20:00,60.5,54.6,30.12,WNW,296,1.0,2.0,81,0.00,,,0.00,Wunderground v.1.15,2013-07-31 02:20:00,
2013-07-30 19:25:00,60.4,54.5,30.11,WNW,295,1.0,3.0,81,0.00,,,0.00,Wunderground v.1.15,2013-07-31 02:25:00,
2013-07-30 19:35:00,60.3,54.4,30.12,WNW,284,2.0,3.0,81,0.00,,,0.00,Wunderground v.1.15,2013-07-31 02:35:00,
2013-07-30 19:45:00,60.0,54.2,30.12,WNW,302,2.0,2.0,81,0.00,,,0.00,Wunderground v.1.15,2013-07-31 02:45:00,
2013-07-30 19:50:00,59.9,54.4,30.12,NNW,342,1.0,2.0,82,0.00,,,0.00,Wunderground v.1.15,2013-07-31 02:50:00,
2013-07-30 20:00:00,59.7,53.9,30.12,NNW,348,1.0,1.0,81,0.00,,,0.00,Wunderground v.1.15,2013-07-31 03:00:00,
2013-07-30 20:10:00,59.5,54.3,30.12,NNW,329,1.0,2.0,83,0.00,,,0.00,Wunderground v.1.15,2013-07-31 03:10:00,
2013-07-30 20:20:00,59.4,54.2,30.12,NW,304,2.0,3.0,83,0.00,,,0.00,Wunderground v.1.15,2013-07-31 03:20:00,
2013-07-30 20:30:00,59.1,54.3,30.12,WNW,300,1.0,2.0,84,0.00,,,0.00,Wunderground v.1.15,2013-07-31 03:30:00,
2013-07-30 20:40:00,58.8,53.6,30.12,NW,304,1.0,1.0,83,0.00,,,0.00,Wunderground v.1.15,2013-07-31 03:40:00,
2013-07-30 20:50:00,58.6,54.1,30.12,NNW,330,0.0,0.0,85,0.00,,,0.00,Wunderground v.1.15,2013-07-31 03:50:00,
2013-07-30 21:00:00,58.3,53.8,30.12,West,265,0.0,0.0,85,0.00,,,0.00,Wunderground v.1.15,2013-07-31 04:00:00,
2013-07-30 21:05:00,58.1,53.6,30.12,SW,227,1.0,1.0,85,0.00,,,0.00,Wunderground v.1.15,2013-07-31 04:05:00,
2013-07-30 21:10:00,58.0,53.5,30.12,West,266,1.0,2.0,85,0.00,,,0.00,Wunderground v.1.15,2013-07-31 04:10:00,
2013-07-30 21:15:00,57.9,53.7,30.12,WNW,290,1.0,3.0,86,0.00,,,0.00,Wunderground v.1.15,2013-07-31 04:15:00,
2013-07-30 21:20:00,57.8,53.6,30.13,WNW,296,1.0,1.0,86,0.00,,,0.00,Wunderground v.1.15,2013-07-31 04:20:00,
2013-07-30 21:25:00,57.8,53.6,30.13,NW,319,1.0,2.0,86,0.00,,,0.00,Wunderground v.1.15,2013-07-31 04:25:00,
2013-07-30 21:30:00,57.7,53.9,30.13,WNW,295,1.0,1.0,87,0.00,,,0.00,Wunderground v.1.15,2013-07-31 04:30:00,
2013-07-30 21:35:00,57.6,53.8,30.13,NW,324,2.0,2.0,87,0.00,,,0.00,Wunderground v.1.15,2013-07-31 04:35:00,
2013-07-30 21:40:00,57.6,53.8,30.13,NW,323,1.0,1.0,87,0.00,,,0.00,Wunderground v.1.15,2013-07-31 04:40:00,
2013-07-30 21:45:00,57.5,53.7,30.13,WNW,284,1.0,1.0,87,0.00,,,0.00,Wunderground v.1.15,2013-07-31 04:45:00,
2013-07-30 21:55:00,57.5,53.7,30.13,WSW,256,1.0,1.0,87,0.00,,,0.00,Wunderground v.1.15,2013-07-31 04:55:00,
2013-07-30 22:00:00,57.5,53.7,30.13,WNW,294,1.0,1.0,87,0.00,,,0.00,Wunderground v.1.15,2013-07-31 05:00:00,
2013-07-30 22:10:00,57.5,53.7,30.13,NW,312,1.0,2.0,87,0.00,,,0.00,Wunderground v.1.15,2013-07-31 05:10:00,
2013-07-30 22:20:00,57.5,53.7,30.13,West,267,1.0,3.0,87,0.00,,,0.00,Wunderground v.1.15,2013-07-31 05:20:00,
2013-07-30 22:30:00,57.5,53.7,30.13,North,355,1.0,1.0,87,0.00,,,0.00,Wunderground v.1.15,2013-07-31 05:30:00,
2013-07-30 22:40:00,57.5,53.7,30.13,NNW,341,1.0,1.0,87,0.00,,,0.00,Wunderground v.1.15,2013-07-31 05:40:00,
2013-07-30 22:50:00,57.4,53.9,30.13,NW,321,0.0,1.0,88,0.00,,,0.00,Wunderground v.1.15,2013-07-31 05:50:00,
2013-07-30 23:00:00,57.4,53.9,30.13,West,267,1.0,1.0,88,0.00,,,0.00,Wunderground v.1.15,2013-07-31 06:00:00,
2013-07-30 23:10:00,57.3,53.8,30.13,NW,315,1.0,1.0,88,0.00,,,0.00,Wunderground v.1.15,2013-07-31 06:10:00,
2013-07-30 23:20:00,57.3,53.8,30.13,NW,313,0.0,0.0,88,0.00,,,0.00,Wunderground v.1.15,2013-07-31 06:20:00,
2013-07-30 23:30:00,57.3,53.8,30.13,WNW,285,1.0,1.0,88,0.00,,,0.00,Wunderground v.1.15,2013-07-31 06:30:00,
2013-07-30 23:40:00,57.3,53.8,30.13,WNW,286,0.0,0.0,88,0.00,,,0.00,Wunderground v.1.15,2013-07-31 06:40:00,
2013-07-30 23:50:00,57.3,53.8,30.13,NNW,344,1.0,1.0,88,0.00,,,0.00,Wunderground v.1.15,2013-07-31 06:50:00,